Hourly Weather Roundup
Issued by NWS Central Illinois

Home | Current Version | Previous Version | Text Only | Print | Product List | Glossary On
Versions: 1 2 3 4 5 6 7 8 9 10 11 12 13 14 15 16 17 18 19 20 21 22 23 24 25 26 27 28 29 30 31 32 33 34 35 36 37 38 39 40 41 42 43 44 45 46 47 48 49 50
000
NZUS43 KILX 150210
HWRILX

AREA WEATHER ROUNDUP
NATIONAL WEATHER SERVICE, LINCOLN IL
900 PM CDT SUN SEP 14 2014


CITY           SKY/WX    TMP DP  RH WIND       PRES   REMARKS
BLOOMINGTON    CLEAR     53  47  80 SW6       30.20R
CHAMPAIGN      CLEAR     54  45  71 S7        30.20R
DECATUR        CLEAR     57  47  69 S5        30.20S
FLORA          CLEAR     53  50  89 CALM      30.22S
GALESBURG      PTCLDY    57  48  72 SE5       30.17R
JACKSONVILLE   CLEAR     56  50  81 SE5       30.19S
LACON          CLEAR     51  47  87 CALM      30.17R
LAWRENCEVILLE  CLEAR     53  50  89 SE3       30.21S
LITCHFIELD     CLEAR     54  49  82 SE3       30.20S
$$


CITY           SKY/WX    TMP DP  RH WIND       PRES   REMARKS
LINCOLN        CLEAR     55  47  73 CALM      30.17S
MACOMB         CLEAR     52  49  89 S3        30.19S
MATTOON        CLEAR     56  50  80 CALM      30.20R
MT CARMEL AP   CLEAR     55  54  94 CALM      30.21S
OLNEY-NOBLE AP CLEAR     50  48  93 CALM      30.21S
PARIS          CLEAR     50  49  94 CALM      30.21S
PEORIA         CLEAR     56  49  77 CALM      30.18R
PONTIAC        CLEAR     52  50  93 SE3       30.19R
RANTOUL        CLEAR     57  47  69 CALM      30.20S
ROBINSON       CLEAR     51  50  95 SE3       30.21S
SPRINGFIELD    CLEAR     56  51  84 SE3       30.19R
TAYLORVILLE    CLEAR     54  46  76 S3        30.20S
$$

...REGIONAL REPORTS...


CITY           SKY/WX    TMP DP  RH WIND       PRES   REMARKS
CHICAGO O`HARE PTCLDY    55  47  74 CALM      30.17S
KANKAKEE       CLEAR     51  49  94 CALM      30.20R
MOLINE         PTCLDY    55  51  86 CALM      30.16S
MOUNT VERNON   CLEAR     52  48  87 CALM      30.21S
PITTSFIELD     CLEAR     56  49  78 CALM      30.18S
QUINCY         CLEAR     56  49  77 SE6       30.17R
ROCKFORD       PTCLDY    54  48  80 CALM      30.20R
$$


CITY           SKY/WX    TMP DP  RH WIND       PRES   REMARKS
BURLINGTON     PTCLDY    55  50  83 SE3       30.16R
CEDAR RAPIDS   PTCLDY    55  50  83 S3        30.15R
DES MOINES     MOCLDY    65  51  60 SE6       30.13R
KIRKSVILLE     PTCLDY    57  52  83 SE3       30.15R
OTTUMWA        MOCLDY    57  51  80 SE5       30.15R
ST LOUIS       CLEAR     63  48  58 SE8       30.19R
$$


CITY           SKY/WX    TMP DP  RH WIND       PRES   REMARKS
TERRE HAUTE    CLEAR     52  48  86 CALM      30.21S
EVANSVILLE     CLEAR     58  51  78 SW5       30.21R
INDIANAPOLIS   PTCLDY    57  47  69 SW5       30.20S
LAFAYETTE      CLEAR     51  48  89 CALM      30.20S
MADISON        MOCLDY    60  47  61 S7        30.14S
MILWAUKEE      MOCLDY    57  45  64 SW6       30.16R
$$





USA.gov is the U.S. government's official web portal to all federal, state and local government web resources and services.